Location: Coleto Creek Park and Reservoir
(28.7196°N, 97.1740°W)
Time: 06:29:18
(UTC-05:00)

HST - Visible Passes

Search period start: 31 July 2014 00:00
Search period end: 10 August 2014 00:00
Orbit: 547 x 552 km, 28.5° (Epoch: 31 July)

Date Brightness Start Highest point End Pass type
(mag) Time Alt. Az. Time Alt. Az. Time Alt. Az.
31 Jul 2.4 20:52:39 10° WSW 20:56:05 25° SSW 20:59:31 10° SSE visible
01 Aug 2.8 20:46:12 10° WSW 20:49:10 19° SSW 20:52:09 10° SSE visible
02 Aug 3.2 20:40:01 10° WSW 20:42:15 14° SSW 20:44:28 10° S visible
